{"data":{"norad_id":58097,"epoch":"2026-09-20T12:32:02.257440Z","epoch_age_seconds":138456,"freshness":"FRESH","line1":"1 58097U 23161A   26263.52224835  .00001610  00000+0  58781-4 0  9992","line2":"2 58097  53.1596 337.5597 0001399  96.6524 263.4638 15.34396320164293","mean_motion":15.3439632,"eccentricity":0.0001399,"inclination_deg":53.1596,"raan_deg":337.5597,"arg_perigee_deg":96.6524,"mean_anomaly_deg":263.4638,"bstar":5.8781e-5,"rev_number":16429,"period_min":93.847983159918,"perigee_km":461.75714288469,"apogee_km":463.67121304429,"semimajor_km":6840.8511779645,"source":"CELESTRAK","updated_at":"2026-09-21T09:00:33.785845Z"}}